Flag for Germany Weather past 2 weeks in Hameln, Lower Saxony, Germany

Now
57 °F

Cool.


Feels Like: 57 °F
Forecast: 64 / 91 °F
Wind: No wind

Location: Bueckeburg

Current Time: Jul 1, 2015 at 4:43:41 AM

Latest Report: Jul 1, 2015 at 3:20 AM


Visibility: N/A

Pressure: 30.15 "Hg

Humidity: 82%

Dew point: 52 °F

Location of HamelnLocation

Historic Weather in Hameln — Graph

°F

Hameln temperature yesterday

Maximum temperature yesterday: 77 °F (at 6:20 PM)
Minimum temperature yesterday: 55 °F (at 4:20 AM)
Average temperature yesterday: 66 °F

Past Weeks' High & Low Weather Summary

 TemperatureHumidityPressure
High77 °F (Jun 29, 2:20 PM)100% (Jun 18, 1:20 AM)30.30 "Hg (Jun 18, 1:20 AM)
Low41 °F (Jun 16, 5:20 AM)36% (Jun 30, 3:20 PM)29.65 "Hg (Jun 22, 9:20 PM)
Average60 °F73%30.05 "Hg
* Reported Jun 16 3:20 AM — Jul 1 3:20 AM, Hameln, Weather by CustomWeather, © 2015

Note: Actual official high and low records may vary slightly from our data, if they occured in-between our weather recording intervals... More about our weather records

Advertising

Hameln weather history for previous 24 hours

 ConditionsComfort  
Time TempWeatherWind HumidityBarometerVisibility
3:20 AM
Wed, Jul 1
57 °FCool.No wind82%30.15 "HgN/A
2:20 AM57 °FCool.1 mph82%30.18 "HgN/A
1:20 AM63 °FMild.1 mph68%30.18 "HgN/A
12:20 AM64 °FMild.8 mph64%30.15 "HgN/A
11:20 PM
Tue, Jun 30
64 °FMild.1 mph68%30.18 "HgN/A
10:20 PM68 °FMild.1 mph60%30.18 "HgN/A
9:20 PM73 °FMild.1 mph47%30.15 "HgN/A
8:20 PM75 °FMild.3 mph44%30.15 "HgN/A
6:20 PM77 °FPleasantly warm.5 mph39%30.15 "HgN/A
4:20 PM75 °FPassing clouds.5 mph41%30.18 "HgN/A
3:20 PM75 °FPassing clouds.5 mph36%30.18 "HgN/A
2:20 PM73 °FPassing clouds.5 mph41%30.18 "HgN/A
1:20 PM72 °FPassing clouds.7 mph47%30.21 "HgN/A
12:20 PM72 °FPassing clouds.5 mph47%30.21 "HgN/A
11:20 AM70 °FPassing clouds.3 mph50%30.21 "HgN/A
10:20 AM68 °FPassing clouds.6 mph56%30.21 "HgN/A
9:20 AM66 °FPassing clouds.5 mph56%30.21 "HgN/A
8:20 AM64 °FPassing clouds.1 mph64%30.21 "HgN/A
7:20 AM59 °FScattered clouds.1 mph77%30.21 "HgN/A
6:20 AM55 °FScattered clouds.No wind94%30.21 "HgN/A
5:20 AM55 °FFog.No wind94%30.21 "HgN/A
4:20 AM55 °FPartly cloudy.1 mph94%30.18 "HgN/A
Weather by CustomWeather, © 2015

See weather overviewHow to use our weather pages